Weather in Shediac

Canada     46°13′12″N   64°32′35″W
temp.,
°C
wind,
m/s
gust,
m/s
humid.,
%
clouds,
%
prec.,
mm/h
press.,
hPa
HPBL,
m
8 may, sat
sat800:00+4se358681 0.0 1018117
03:00+3ene359036 0.0 101683
06:00+3ne3692100 0.0 1016150
09:00+5ne5986100 0.0 1016639
12:00+6nne71075100 0.0 1012874
15:00+6nne81276100 0.0 1009952
18:00+4nne101695100 1.4 10061003
21:00+4nne91596100 2.8 10041072
9 may, sun
sun900:00+4n91497100 2.2 1003920
03:00+4nnw101497100 5.0 10021028
06:00+4nnw81597100 2.7 10031179
09:00+5nw71494100 3.4 10051165
12:00+6nnw61188100 0.7 1007866
15:00+7nnw4882100 0.9 1008776
18:00+8nnw3674100 0.2 1010848
21:00+7w3783100 0.2 1011192
10 may, mon
mon1000:00+5w378876 0.0 1012122
03:00+3wsw369012 0.0 101298
06:00+2w22906 0.0 101226
09:00+7s1174100 0.0 1012180
12:00+9ese2367100 0.0 1012594
15:00+10e457194 0.1 1009453
18:00+9e467990 0.1 1008366
21:00+7e4890100 0.3 1006299
11 may, tue
tue1100:00+5ene4997100 2.8 1005307
03:00+4ne5997100 8.3 1005323
06:00+4ne3794100 2.1 1005264
09:00+4n4688100 2.6 1007469
12:00+4nnw2388100 0.1 1009350
15:00+5se1286100 0.1 1009305
18:00+5se229199 0.1 1008225
21:00+5e1294100 0.2 100786
12 may, wed
wed1200:00+5ne2492100 0.4 1006147
03:00+4ne2486100 1.1 1005268
06:00+4nnw3690100 0.0 1006214
09:00+4nnw5796100 0.2 1007669
12:00+4nw4896100 0.6 1008729
15:00+6n6989100 1.0 1010807
18:00+6n498192 0.1 1011517
21:00+4wsw338939 0.1 101346